Home > Weather > Belfast > Past weeks

Flag for United Kingdom Weather for the Past 2 Weeks in Belfast, Northern Ireland, United Kingdom

Now
39 °F

Scattered showers. Scattered clouds.


Feels Like: 32 °F
Forecast: N/A
Wind: 12 mph from North

Location: Belfast / Harbour

Current Time: Feb 14, 2016 at 5:31:14 PM

Latest Report: Feb 14, 2016 at 4:50 PM


Visibility: N/A

Pressure: 29.86 "Hg

Humidity: 61%

Dew point: 27 °F

Location of BelfastLocation

Historic Weather in Belfast — Graph

°F

Belfast Temperature Yesterday

Maximum temperature yesterday: 45 °F (at 12:20 PM)
Minimum temperature yesterday: 39 °F (at 8:20 AM)
Average temperature yesterday: 41 °F

High & Low Weather Summary for the Past Weeks

 TemperatureHumidityPressure
High54 °F (Jan 31, 6:50 PM)93% (Feb 11, 6:20 AM)30.24 "Hg (Feb 11, 6:20 AM)
Low30 °F (Feb 11, 6:20 AM)37% (Feb 1, 3:50 PM)28.50 "Hg (Feb 8, 6:20 AM)
Average43 °F72%29.44 "Hg
* Reported Jan 30 4:20 PM — Feb 14 4:20 PM, Belfast, Weather by CustomWeather, © 2016

Note: Actual official high and low records may vary slightly from our data, if they occured in-between our weather recording intervals... More about our weather records

Advertising

Belfast Weather History for the Previous 24 Hours

 ConditionsComfort  
Time TempWeatherWind HumidityBarometerVisibility
4:20 PM
Sun, Feb 14
41 °FScattered clouds.14 mph57%29.83 "HgN/A
3:50 PM41 °FScattered clouds.13 mph57%29.80 "HgN/A
3:20 PM41 °FScattered clouds.13 mph61%29.80 "HgN/A
2:50 PM41 °FPassing clouds.16 mph57%29.77 "HgN/A
2:20 PM41 °FPassing clouds.15 mph57%29.77 "HgN/A
1:50 PM41 °FPassing clouds.14 mph61%29.74 "HgN/A
1:20 PM41 °FPassing clouds.15 mph66%29.74 "HgN/A
12:50 PM41 °FPassing clouds.17 mph66%29.71 "HgN/A
12:20 PM41 °FPassing clouds.17 mph66%29.68 "HgN/A
11:50 AM41 °FPassing clouds.16 mph70%29.68 "HgN/A
11:20 AM39 °FPassing clouds.15 mph75%29.68 "HgN/A
10:50 AM39 °FPassing clouds.16 mph70%29.65 "HgN/A
10:20 AM39 °FPassing clouds.14 mph61%29.62 "HgN/A
9:50 AM39 °FPassing clouds.13 mph70%29.62 "HgN/A
9:20 AM37 °FPassing clouds.7 mph65%29.59 "HgN/A
8:50 AM37 °FPassing clouds.8 mph65%29.56 "HgN/A
8:20 AM37 °FPassing clouds.12 mph70%29.53 "HgN/A
7:20 AM39 °FPassing clouds.10 mph65%29.50 "HgN/A
6:50 AM39 °FPassing clouds.12 mph65%29.47 "HgN/A
8:20 PM
Sat, Feb 13
39 °FPassing clouds.16 mph81%29.27 "HgN/A
7:50 PM39 °FPassing clouds.16 mph81%29.27 "HgN/A
7:20 PM39 °FPassing clouds.14 mph81%29.27 "HgN/A
6:50 PM39 °FPassing clouds.13 mph81%29.27 "HgN/A
6:20 PM41 °FPassing clouds.13 mph76%29.27 "HgN/A
5:50 PM41 °FPassing clouds.14 mph76%29.24 "HgN/A
5:20 PM41 °FScattered showers. Scattered clouds.10 mph70%29.24 "HgN/A
Weather by CustomWeather, © 2016

See weather overviewHow to use our weather pages